Погода в Димитровграде

Погода в Димитровграде : погода сейчас, прогноз погоды и архив. Всё, что Вы хотите узнать о погоде в Димитровграде!

Хотите узнать прогноз погоды в Димитровграде? Тогда Вам сюда: Погода в Димитровграде

Поиск расширенной информации на нашем сайте:

Другие новости

Новости СМИ2

Главная страница сайта

Новости сайта

02.10.2013

Напоминаем, что на нашем новом сайте вы можете получить высокодетализированные прогнозы погоды по пунктам России, СНГ и мира (включающие важные для авиации метеовеличины, такие как направление и скорость ветра, видимость, явления погоды, количество и форма облачности, нижняя и верхняя граница облачности), а также ознакомиться с разнообразными материалами по авиационной метеорологии и подборкой полезных ссылок на эту тему.

Сайт Метеоцентр.Азия посвящён разработке технологий оптимизации авиаметеорологического обслуживания, включая проектирование и перспективное создание нескольких автоматизированных авиаметеорологических систем:
- система выпуска высокодетальных прогностических карт явлений погоды для нижнего воздушного пространства по России и ближнему зарубежью;
- система верификации прогнозов TAF (выпускаемых синоптиками официальных АМСГ РФ и ближнего зарубежья) и AUTOTAF (выпускаемых сайтом Метеоцентр.Азия) - выявление ошибок, онлайн-сопоставление с фактической погодой METAR, автоматическое внесение коррективов в прогнозы при резком отклонении фактической погоды от прогноза, подсчёт оправдываемости прогнозов по элементам и в целом;
- система обработки, анализа и отображения авиаметеорологической информации для применения провайдерами метеорологической информации.


Погода в Димитровграде - сегодня

Время (UTC), дата Ветер
(°,м/с) 
Видим.   Явления Облачность Т
(°С)
Тd
(°С)
f(%) Тe
(°С)
Pmin
(гПа)
dP
(гПа)
Po
(мм)
O2
(г/м3)
Тmin Tmax R s Состояние
почвы
09 25.05.17 230 (ЮЗ) 10 км    8/5 870 м верхняя 
[Cu med, cong|Ci fib]
+25.9 +8.4 33 +26  1015.4  -0.8  755  277           
12 25.05.17 210 (ЮЗ) 10 км    4/3 900 м верхняя 
[Cu med, cong|Ci fib]
+25.7 +6.3 29 +26  1014.9  -0.4  755  277           
15 25.05.17 210 (ЮЗ) 10 км    3/0 верхняя 
[Ci fib]
+23.3 +7.6 36 +23  1014.1  -0.9  754  279    +26.6       
18 25.05.17 230 (ЮЗ) 10 км    3/3 840 м 
[Sc]
+17.4 +8.7 57 +19  1014.8  0.6  755  284           
21 25.05.17 140 (ЮВ) 10 км    ясно 
+13.4 +9.5 77 +15  1015.1  0.1  755  288           
00 26.05.17 тихо ()   10 км    ясно 
+10.4 +9.4 94 +11  1015  -0.2  755  291           
03 26.05.17 230 (ЮЗ) 10 км    3/0 верхняя 
[Ci sp]
+16.5 +11.4 72 +21  1014.9  0.1  755  285  +10.1        сухая 
06 26.05.17 210 (ЮЗ) 10 км    ясно 
+22.1 +10.4 47 +24  1014.3  -0.4  754  279           
09 26.05.17 210 (ЮЗ) 10 км    4/4 870 м 
[Cu med, cong]
+25.1 +7.7 33 +25  1013.6  -0.7  754  277           
12 26.05.17 220 (ЮЗ) 3{10}  10 км    5/4 840 м средняя 
[Cu med, cong|Ac lent]
+25.6 +6.1 29 +26  1011.5  -2  752  276           
15 26.05.17 240 (ЮЗ) 10 км    8/5 870 м средняя 
[Sc|Ac lent]
+21.9 +9.6 45 +23  1011  -0.6  752  279    +26.1       
18 26.05.17 150 (ЮВ) 10 км    3/0 средняя 
[Ac cast]
+16.8 +10.5 66 +20  1010.6  -0.5  752  283           
21 26.05.17 тихо ()   10 км    ясно 
+14.4 +9.1 70 +14  1009.9  -0.8  751  286           
03 27.05.17 190 (Ю) 10 км    9/9 900 м 
[Sc]
+15.3 +10.8 75 +19  1008  -0.8  749  284  +10.9        сухая 
06 27.05.17 230 (ЮЗ) 10 км  {ливн. осадки}  8/3 600 м кучево-дожд., средняя, верхняя 
[Cb cap|Ac cast|Cc]
+19.6 +12.3 63 +25  1006.9  -0.9  749  279           
09 27.05.17 220 (ЮЗ) 10 км    3/3 600 м кучево-дожд. 
[Cb cap]
+22 +10.6 48 +24  1005.9  -0.9  748  277           
15 27.05.17 260 (З) 1{10}  10 км  слаб. ливневой дождь{гроза}  10/10 700 м кучево-дожд. 
[Cb cap]
+14.6 +13.4 93 +22  1005.6  1.2  748  283    +24.6     
00 28.05.17 330 (СЗ) 10 км    ясно 
+5.9 +4.9 93 +7  1010  1.4  751  295           
06 28.05.17 360 (С) 10 км    8/4 900 м средняя 
[Cu med, cong|Ac As]
+11.2 +1.6 52 +11  1011.3  0.2  752  291           
09 28.05.17 360 (С) 10 км    10/10 870 м кучево-дожд. 
[Cb cap]
+10.3 -1.3 44 +10  1011.1  -0.3  752  292           
15 28.05.17 360 (С) 10 км  слаб. дождь{ливн. осадки}  10/10 800 м 
[Frnb|Ns]
+5.3 +3.4 88 +4  1011.1  0.2  752  297    +12     
18 28.05.17 010 (С) 10 км  {ливн. осадки, дождь}  10/0 средняя 
[As op]
+4.9 -0 71 +5  1012.8  1.6  753  298           
21 28.05.17 350 (С) 10 км    10/0 средняя 
[As op]
+3 -3.7 61 +2  1014.2  1.4  754  301           
00 29.05.17 320 (СЗ) 10 км    3/0 средняя 
[Ac As]
-0.3 -2.2 87 -1  1015.5  1.2  755  305           
03 29.05.17 330 (СЗ) 10 км    3/0 верхняя 
[Ci fib]
+5.4 -1.1 63 +5  1016.3  0.9  755  299  -0.4    0.3    влажная 
Время (UTC), дата Ветер
(°,м/с) 
Видим.   Явления Облачность Т
(°С)
Тd
(°С)
f(%) Тe
(°С)
Pmin
(гПа)
dP
(гПа)
Po
(мм)
O2
(г/м3)
Тmin Tmax R s Состояние
почвы

Для получения пояснительной информации подведите курсор к названию столбца.

ПОГОДА в Димитровграде - архив

Всё, что Вы хотите узнать о погоде в Димитровграде - удобно и подробно!

Выберите нужную дату (начиная с 1 января 2015* года) и нажмите кнопку "Найти".
Будут отображены архивные сводки погоды по пункту Димитровград, начиная с указанной даты.


Отображать данные в формате CSV (для использования в таблицах Excel)


Внимание! Наш архив погоды предназначен исключительно для личного некоммерческого использования в познавательных целях. Если Вам необходимы официальные справки о состоянии погоды (для производственных, юридических, коммерческих и т.п. целей), обращайтесь в органы Росгидромета.

*Примечание: данная дата относится к архиву по метеостанциям СССР (Россия, СНГ, Балтия).
Архив по метеостанциям Зарубежной Европы и Азии (кроме Китая) хранится 10 дней, по другим регионам земного шара (Китай, Африка, Америка, Австралия, Океания) - 1 день.

Димитровград - район местоположения метеостанции


Название, широта, долгота, высота метеостанции:
Димитровград 54.2°ш. 49.6°д. 73 м над ур. моря [Российская Федерация]

Дополнительная информация

В oтличие oт бoльшинства пoгoдных сайтoв мы публикуем пoдрoбную метеoинфoрмацию в детальнoм прoфессиoнальнoм фoрмате.

Характеристики температуры и влажнoсти вoздуха измеряются на высoте 2 м в тени вдали oт зданий и деревьев.
Скoрoсть ветра измеряется на высoте 10 м (на урoвне рoста челoвека скoрoсть ветра ниже в 1.5-2 раза). Если метеoстанция нахoдится в гoрoде или в лесу, тo скoрoсть ветра занижена на 2-4 м/с пo сравнению с oткрытым местoм. Скoрoсть ветра над акватoриями крупных рек и oзёр, а также на вершинах хoлмoв на 2-5 м/с выше, чем в oбычных услoвиях.
Атмoсфернoе давление в разных тoчках местнoсти мoжет значительнo oтличаться oт давления на метеoстанции, в зависимoсти oт услoвий рельефа (при пoдъёме на 10 м давление пoнижается примернo на 1 мм рт.ст.).